Flag for Mexico Weather past 2 weeks in Querétaro, Querétaro, Mexico

Now
75 °F

Mostly cloudy.


Feels Like: 78 °F
Forecast: N/A
Wind: 9 mph from Northeast

Location: Queretaro - Qro.

Current Time: Sep 21, 2014 at 4:18:37 PM

Latest Report: Sep 21, 2014 at 3:49 PM


Visibility: 8 mi

Pressure: 30.20 "Hg

Humidity: 47%

Dew point: 54 °F

Location of QuerétaroLocation

Historic Weather in Querétaro — Graph

°F

Querétaro temperature yesterday

Maximum temperature yesterday: 79 °F (at 2:45 PM)
Minimum temperature yesterday: 61 °F (at 5:45 AM)
Average temperature yesterday: 67 °F

Past Weeks' High & Low Weather Summary

 TemperatureHumidityPressure
High82 °F (Sep 18, 2:45 PM)100% (Sep 18, 4:45 AM)30.40 "Hg (Sep 18, 4:45 AM)
Low52 °F (Sep 19, 6:45 AM)28% (Sep 19, 2:45 PM)30.08 "Hg (Sep 10, 4:45 PM)
Average65 °F73%30.26 "Hg
* Reported Sep 6 2:45 PM — Sep 21 2:45 PM, Querétaro, Weather by CustomWeather, © 2014

Note: Actual official high and low records may vary slightly from our data, if they occured in-between our weather recording intervals... More about our weather records

Advertising

Querétaro weather history for previous 24 hours

 ConditionsComfort  
Time TempWeatherWind HumidityBarometerVisibility
2:45 PM
Sep 21
75 °FMostly cloudy.5 mph50%30.23 "Hg8 mi
1:45 PM77 °FMostly cloudy.7 mph47%30.27 "Hg7 mi
12:45 PM73 °FPartly sunny.2 mph57%30.30 "Hg6 mi
11:45 AM70 °FMostly cloudy.7 mph64%30.33 "Hg6 mi
10:45 AM68 °FCloudy.6 mph69%30.34 "Hg6 mi
9:45 AM64 °FBroken clouds.6 mph78%30.34 "Hg6 mi
7:45 AM55 °FOvercast.2 mph94%30.30 "Hg6 mi
6:45 AM55 °FPartly cloudy.No wind94%30.27 "Hg6 mi
5:52 AM55 °FPassing clouds.No wind94%30.26 "Hg5 mi
4:45 AM55 °FPassing clouds.No wind94%30.26 "Hg5 mi
3:58 AM55 °FPassing clouds.3 mph94%30.26 "Hg7 mi
3:00 AM57 °FPassing clouds.N/A94%30.27 "Hg6 mi
1:45 AM59 °FPassing clouds.8 mph88%30.27 "Hg6 mi
12:45 AM61 °FPassing clouds.3 mph77%30.28 "Hg7 mi
11:52 PM
Sep 20
63 °FMild.5 mph73%30.29 "HgN/A
10:50 PM63 °FPartly cloudy.3 mph77%30.29 "Hg7 mi
8:50 PM64 °FPartly cloudy.3 mph73%30.25 "Hg7 mi
7:45 PM68 °FBroken clouds.3 mph60%30.22 "Hg7 mi
5:45 PM73 °FBroken clouds.9 mph50%30.18 "Hg7 mi
4:45 PM75 °FPartly sunny.12 mph41%30.16 "Hg7 mi
Weather by CustomWeather, © 2014

See weather overviewHow to use our weather pages